User: anonymous
Location: Arrakis Observatory
(44.1122°N, 95.7153°W)
Time: 01:15:42
(UTC-05:00)
Language:

Iridium 35 - Orbit

View from above orbital plane
View from above orbital plane
View from above satellite
View from above satellite

Ground track
Ground track

The orbit data is extracted from the following two-line orbital elements,

1 24966U 97056B   14208.04912145 -.00000029  00000-0 -17446-4 0  9231
2 24966 086.3938 040.1616 0002101 112.2478 247.8941 14.34215953881158
Epoch (UTC): 27 July 2014 01:10:44
Eccentricity: 0.0002101
inclination: 86.3938°
perigee height: 776 km
apogee height: 779 km
right ascension of ascending node: 40.1616°
argument of perigee: 112.2478°
revolutions per day: 14.34215953
mean anomaly at epoch: 247.8941°
orbit number at epoch: 88115

The dashed part of the orbit path shows where the satellite is in the earth's shadow,  

DLR